Muncie, IN

7:32 AM EDT on March 29, 2017 (GMT -0400)
Delaware County-Johnson

Weather History for KMIE - July, 2012

Change the Weather History Date:

Friday, July 6, 2012

  Actual Average Record
Temperature  
Mean Temperature 88 °F 75 °F  
Max Temperature 101 °F 85 °F 101 °F (2012)
Min Temperature 75 °F 65 °F 46 °F (1983)
Degree Days  
Heating Degree Days 0 0  
Month to date heating degree days 0 0  
Since 1 June heating degree days 25 24  
Since 1 July heating degree days 0 0  
Cooling Degree Days 23 10  
Month to date cooling degree days 112 60  
Year to date cooling degree days 528 359  
Since 1 June cooling degree days 350 276  
Growing Degree Days 38 (Base 50)    
Moisture  
Dew Point 68 °F    
Average Humidity 53    
Maximum Humidity 74    
Minimum Humidity 31    
Precipitation  
Precipitation 0.00 in 0.14 in 1.56 in (2003)
Month to date precipitation 0.04 0.83  
Year to date precipitation 13.92 21.06  
Sea Level Pressure  
Sea Level Pressure 29.95 in    
Wind  
Wind Speed 3 mph (NW)    
Max Wind Speed 13 mph    
Max Gust Speed 16 mph    
Visibility 10 miles    
Events      
T = Trace of Precipitation, MM = Missing Value Source: NWS Daily Summary

Daily Weather History Graph

Daily Weather History Graph

Search for Another Location

Airport or City:

Trip Planner

Search our weather history database for the weather conditions in past years. The results will help you decide how hot, cold, wet, or windy it might be!

Date:

Astronomy

Jul. 06, 2012 Rise Set
Actual Time 6:18 AM EDT 9:13 PM EDT
Civil Twilight 5:46 AM EDT 9:46 PM EDT
Nautical Twilight 5:04 AM EDT 10:27 PM EDT
Astronomical Twilight 4:17 AM EDT 11:15 PM EDT
Moon 11:02 PM EDT (7/6) 9:38 AM EDT (7/6)
Length of Visible Light 16h 00m
Length of Day
14h 55m
Waning Gibbous, 89% of the Moon is Illuminated
Jul 6
Waning Gibbous
Jul 10
Last Quarter
Jul 19
New
Jul 26
First Quarter
Aug 1
Full

Hourly Weather History & Observations

Time (EDT) Temp. Heat Index Dew Point Humidity Pressure Visibility Wind Dir Wind Speed Gust Speed Precip Events Conditions
12:53 AM 78.1 °F - 68.0 °F 71% 29.93 in 10.0 mi Calm Calm - N/A   Clear
1:53 AM 77.0 °F - 68.0 °F 74% 29.93 in 10.0 mi Calm Calm - N/A   Clear
2:53 AM 80.1 °F 82.1 °F 66.0 °F 62% 29.93 in 10.0 mi Calm Calm - N/A   Clear
3:53 AM 79.0 °F - 66.0 °F 64% 29.94 in 10.0 mi Calm Calm - N/A   Clear
4:53 AM 79.0 °F - 64.9 °F 62% 29.94 in 10.0 mi WSW 5.8 mph - N/A   Clear
5:53 AM 78.1 °F - 66.0 °F 66% 29.95 in 10.0 mi WSW 4.6 mph - N/A   Clear
6:53 AM 77.0 °F - 66.0 °F 69% 29.96 in 10.0 mi Calm Calm - N/A   Clear
7:53 AM 81.0 °F 83.3 °F 66.9 °F 62% 29.97 in 10.0 mi Calm Calm - N/A   Clear
8:53 AM 84.9 °F 88.2 °F 68.0 °F 57% 29.97 in 10.0 mi West 3.5 mph - N/A   Clear
9:53 AM 89.1 °F 93.7 °F 69.1 °F 52% 29.97 in 10.0 mi Calm Calm - N/A   Clear
10:53 AM 91.9 °F 98.4 °F 71.1 °F 50% 29.97 in 10.0 mi Calm Calm - N/A   Clear
11:53 AM 97.0 °F 102.8 °F 69.1 °F 40% 29.97 in 10.0 mi NNW 4.6 mph - N/A   Clear
12:53 PM 98.1 °F 103.0 °F 68.0 °F 37% 29.97 in 10.0 mi NNE 4.6 mph - N/A   Clear
1:53 PM 99.0 °F 102.9 °F 66.0 °F 34% 29.96 in 10.0 mi Variable 4.6 mph - N/A   Clear
2:53 PM 100.0 °F 103.6 °F 64.9 °F 32% 29.95 in 10.0 mi NNE 6.9 mph - N/A   Partly Cloudy
3:53 PM 100.9 °F 104.6 °F 64.9 °F 31% 29.94 in 10.0 mi NNW 9.2 mph - N/A   Clear
4:53 PM 99.0 °F 102.9 °F 66.0 °F 34% 29.93 in 10.0 mi NW 6.9 mph - N/A   Clear
6:53 PM 93.0 °F 99.0 °F 70.0 °F 47% 29.91 in 10.0 mi NW 5.8 mph - N/A   Clear
7:53 PM 91.0 °F 98.2 °F 72.0 °F 53% 29.91 in 10.0 mi NNE 3.5 mph - N/A   Clear
8:53 PM 87.1 °F 93.6 °F 72.0 °F 61% 29.92 in 10.0 mi Calm Calm - N/A   Clear
9:53 PM 86.0 °F 91.5 °F 71.1 °F 61% 29.93 in 10.0 mi Calm Calm - N/A   Clear
10:53 PM 82.9 °F 88.0 °F 72.0 °F 69% 29.95 in 10.0 mi Calm Calm - N/A   Clear
11:53 PM 81.0 °F 85.2 °F 72.0 °F 74% 29.95 in 10.0 mi Calm Calm - N/A   Clear